Location: Burland Observatory
(39.4088°N, 105.4217°W)
Time: 07:49:12
(UTC-07:00)

S-56A Canister/Altair - Pass Details

Date: 18 December 2019
Orbit: 634 x 2498 km, 38.9° (Epoch: 22 January)

Event Time Altitude Azimuth Distance (km) Brightness Sun altitude
Rises 04:21:37 0° 167° (SSE) 4,362 11.6 -32.8°
Reaches altitude 10° 04:28:27 10° 130° (SE) 3,956 11.8 -31.5°
Maximum altitude 04:30:02 10° 121° (ESE) 4,043 11.9 -31.2°
Drops below altitude 10° 04:31:42 10° 113° (ESE) 4,200 12.1 -30.9°
Sets 04:40:31 0° 80° (E) 5,747 13.1 -29.2°
